sat.trackr.live / text

‹ back to catalog

STARLINK-2743

NORAD 48682 · 2021-044AW

PAYLOAD ACTIVE UNKNOWN

§ Identity

Operator
Country
US
Launch date
2021-05-26
Launch site
AFETR
Launch vehicle
Mass (kg)
RCS (m²)

Purposes: comms

External: N2YO · Heavens-Above · Gunter

§ Orbital elements

Epoch: 2026-05-25T04:50:13.519104Z

Period
94.01 min
Inclination
53.1609°
Eccentricity
0.0001175
Mean motion
15.31713926 rev/d
Perigee alt
469.9 km
Apogee alt
471.5 km
Semi-major
6,848.8 km
B*
3.6022e-5
RAAN
69.1452°
Arg perigee
89.1921°
Mean anomaly
270.9215°
Rev number
27,622

§ Raw data

STARLINK-27431 48682U 21044AW  26145.20154536  .00000753  00000+0  36022-4 0  99942 48682  53.1609  69.1452 0001175  89.1921 270.9215 15.31713926276228

JSON: /api/v1/satellites/48682 · /tle

For live sub-satellite position, see the globe view (requires WebGL).

§ Visibility from observer

Set your observer location to see the next 7 days of passes ≥ 10°. The values pass through the URL so the page stays shareable.

No JS? Fill the form by hand. The geolocation button needs JavaScript.